• In Hungary
  • List of Countries
  • For 7 days
  • Water Temperature
  • Satellite Maps
  • Weather Map
  • News
  • Weather Widgets
  • user-avatar
    Login

    Hourly Weather Horonhoy

    Today, 23 July, Monday

    Time Temperature Precipitation Wind Pressure Humidity
    00:00 +15°C° 0 mm 0 mps 705 mmHg 74%
    01:00 +14°C° 0 mm 0 mps 705 mmHg 74%
    02:00 +14°C° 0 mm 0 mps 705 mmHg 75%
    03:00 +14°C° 0 mm 0 mps 705 mmHg 76%
    04:00 +14°C° 0 mm 0 mps 705 mmHg 77%
    05:00 +15°C° 0 mm 0 mps 705 mmHg 72%
    06:00 +17°C° 0 mm 0 mps 705 mmHg 67%
    07:00 +20°C° 0 mm 1 mps 705 mmHg 63%
    08:00 +22°C° 0 mm 1 mps 705 mmHg 59%
    09:00 +24°C° 0 mm 1 mps 705 mmHg 56%
    10:00 +25°C° 0 mm 2 mps 705 mmHg 52%
    11:00 +26°C° 0 mm 2 mps 704 mmHg 50%
    12:00 +27°C° 0 mm 1 mps 704 mmHg 47%
    13:00 +27°C° 0 mm 1 mps 704 mmHg 48%
    14:00 +28°C° 0 mm 1 mps 704 mmHg 47%
    15:00 +28°C° 0 mm 1 mps 704 mmHg 45%
    16:00 +29°C° 0 mm 1 mps 703 mmHg 44%
    17:00 +26°C° 0 mm 0 mps 703 mmHg 50%
    18:00 +25°C° 0 mm 0 mps 703 mmHg 57%
    19:00 +23°C° 0 mm 0 mps 703 mmHg 63%
    20:00 +22°C° 0 mm 0 mps 703 mmHg 66%
    21:00 +22°C° 0 mm 1 mps 703 mmHg 69%
    22:00 +20°C° 0 mm 1 mps 703 mmHg 72%
    23:00 +20°C° 0 mm 1 mps 703 mmHg 74%

    Tomorrow, 24 July, Tuesday

    Time Temperature Precipitation Wind Pressure Humidity
    00:00 +19°C° 0 mm 1 mps 703 mmHg 76%
    01:00 +19°C° 0 mm 1 mps 703 mmHg 78%
    02:00 +18°C° 0 mm 1 mps 703 mmHg 80%
    03:00 +18°C° 0 mm 1 mps 703 mmHg 82%
    04:00 +15°C° 0 mm 0 mps 703 mmHg 84%
    05:00 +17°C° 0 mm 0 mps 703 mmHg 78%
    06:00 +19°C° 0 mm 0 mps 703 mmHg 71%
    07:00 +23°C° 0 mm 1 mps 703 mmHg 65%
    08:00 +25°C° 0 mm 1 mps 703 mmHg 60%
    09:00 +26°C° 0 mm 1 mps 703 mmHg 55%
    10:00 +28°C° 0 mm 2 mps 703 mmHg 51%
    11:00 +29°C° 0 mm 2 mps 703 mmHg 48%
    12:00 +30°C° 0 mm 2 mps 702 mmHg 45%
    13:00 +31°C° 0 mm 3 mps 702 mmHg 42%
    14:00 +31°C° 0 mm 3 mps 702 mmHg 42%
    15:00 +31°C° 0 mm 3 mps 702 mmHg 41%
    16:00 +33°C° 0 mm 3 mps 701 mmHg 41%
    17:00 +30°C° 0 mm 3 mps 701 mmHg 47%
    18:00 +29°C° 0 mm 2 mps 701 mmHg 53%
    19:00 +27°C° 0 mm 2 mps 701 mmHg 59%
    20:00 +26°C° 0 mm 2 mps 701 mmHg 62%
    21:00 +24°C° 0 mm 2 mps 701 mmHg 65%
    22:00 +23°C° 0 mm 2 mps 701 mmHg 69%
    23:00 +21°C° 0 mm 2 mps 701 mmHg 71%

    Day after tomorrow, 25 July, Wednesday

    Time Temperature Precipitation Wind Pressure Humidity
    00:00 +21°C° 0 mm 1 mps 701 mmHg 74%
    01:00 +21°C° 0 mm 1 mps 700 mmHg 77%
    02:00 +20°C° 0 mm 1 mps 700 mmHg 79%
    03:00 +20°C° 0 mm 1 mps 700 mmHg 82%
    04:00 +19°C° 0 mm 1 mps 700 mmHg 84%
    05:00 +21°C° 0 mm 1 mps 700 mmHg 78%
    06:00 +23°C° 0 mm 1 mps 700 mmHg 72%
    07:00 +24°C° 0 mm 1 mps 700 mmHg 66%
    08:00 +26°C° 0 mm 2 mps 700 mmHg 61%
    09:00 +28°C° 0 mm 2 mps 700 mmHg 56%
    10:00 +30°C° 0 mm 2 mps 700 mmHg 51%
    11:00 +31°C° 0 mm 3 mps 700 mmHg 49%
    12:00 +33°C° 0 mm 3 mps 700 mmHg 46%
    13:00 +34°C° 0 mm 4 mps 699 mmHg 43%
    14:00 +35°C° 0 mm 4 mps 699 mmHg 43%
    15:00 +35°C° 0 mm 4 mps 699 mmHg 42%
    16:00 +36°C° 0 mm 4 mps 698 mmHg 42%
    17:00 +34°C° 0 mm 3 mps 698 mmHg 49%
    18:00 +32°C° 0 mm 2 mps 698 mmHg 55%
    19:00 +30°C° 0 mm 1 mps 697 mmHg 62%
    20:00 +29°C° 0 mm 1 mps 697 mmHg 66%
    21:00 +27°C° 0 mm 1 mps 698 mmHg 70%
    22:00 +26°C° 0 mm 1 mps 698 mmHg 74%
    23:00 +25°C° 0.1 mm 2 mps 698 mmHg 74%

    26 July, Thursday

    Time Temperature Precipitation Wind Pressure Humidity
    00:00 +25°C° 0.1 mm 2 mps 698 mmHg 73%
    01:00 +25°C° 0.1 mm 3 mps 699 mmHg 73%
    02:00 +24°C° 0.3 mm 3 mps 699 mmHg 74%
    03:00 +24°C° 0.3 mm 3 mps 699 mmHg 75%
    04:00 +24°C° 0.3 mm 2 mps 699 mmHg 76%
    05:00 +25°C° 0 mm 3 mps 700 mmHg 74%
    06:00 +25°C° 0 mm 3 mps 700 mmHg 71%
    07:00 +26°C° 0 mm 3 mps 700 mmHg 69%
    08:00 +28°C° 0 mm 4 mps 700 mmHg 62%
    09:00 +30°C° 0 mm 4 mps 701 mmHg 55%
    10:00 +33°C° 0 mm 5 mps 701 mmHg 48%
    11:00 +33°C° 0 mm 5 mps 701 mmHg 46%
    12:00 +34°C° 0 mm 5 mps 701 mmHg 45%
    13:00 +34°C° 0 mm 6 mps 701 mmHg 43%
    14:00 +34°C° 0 mm 6 mps 701 mmHg 44%
    15:00 +34°C° 0 mm 6 mps 702 mmHg 44%
    16:00 +33°C° 0 mm 6 mps 702 mmHg 45%
    17:00 +29°C° 0.7 mm 5 mps 702 mmHg 55%
    18:00 +26°C° 0.7 mm 5 mps 702 mmHg 66%
    19:00 +22°C° 0.7 mm 4 mps 703 mmHg 76%
    20:00 +21°C° 1.1 mm 4 mps 703 mmHg 80%
    21:00 +20°C° 1.1 mm 4 mps 703 mmHg 84%
    22:00 +18°C° 1.1 mm 4 mps 704 mmHg 87%
    23:00 +17°C° 1.1 mm 4 mps 704 mmHg 88%

    27 July, Friday

    Time Temperature Precipitation Wind Pressure Humidity
    00:00 +17°C° 1.1 mm 3 mps 704 mmHg 89%
    01:00 +16°C° 1.1 mm 2 mps 704 mmHg 89%
    02:00 +16°C° 1.6 mm 2 mps 705 mmHg 90%
    03:00 +16°C° 1.6 mm 2 mps 705 mmHg 90%
    04:00 +16°C° 1.6 mm 2 mps 705 mmHg 91%
    05:00 +16°C° 0.1 mm 2 mps 706 mmHg 87%
    06:00 +16°C° 0.1 mm 2 mps 706 mmHg 84%
    07:00 +17°C° 0.1 mm 2 mps 706 mmHg 80%
    08:00 +19°C° 0 mm 1 mps 706 mmHg 75%
    09:00 +20°C° 0 mm 1 mps 707 mmHg 69%
    10:00 +21°C° 0 mm 1 mps 707 mmHg 63%
    11:00 +21°C° 0 mm 1 mps 707 mmHg 60%
    12:00 +22°C° 0 mm 1 mps 707 mmHg 57%
    13:00 +23°C° 0 mm 1 mps 707 mmHg 54%
    14:00 +23°C° 0 mm 1 mps 707 mmHg 55%
    15:00 +23°C° 0 mm 1 mps 707 mmHg 55%
    16:00 +23°C° 0 mm 2 mps 707 mmHg 56%
    17:00 +22°C° 0 mm 1 mps 707 mmHg 61%
    18:00 +22°C° 0 mm 1 mps 707 mmHg 67%
    19:00 +21°C° 0 mm 1 mps 707 mmHg 72%
    20:00 +20°C° 0 mm 1 mps 707 mmHg 74%
    21:00 +19°C° 0 mm 1 mps 707 mmHg 75%
    22:00 +18°C° 0 mm 1 mps 707 mmHg 77%
    23:00 +16°C° 0 mm 1 mps 707 mmHg 78%

    28 July, Saturday

    Time Temperature Precipitation Wind Pressure Humidity
    00:00 +16°C° 0 mm 1 mps 706 mmHg 79%
    01:00 +16°C° 0 mm 1 mps 706 mmHg 79%
    02:00 +15°C° 0 mm 1 mps 706 mmHg 80%
    03:00 +15°C° 0 mm 1 mps 706 mmHg 82%
    04:00 +14°C° 0 mm 1 mps 706 mmHg 83%
    05:00 +16°C° 0 mm 1 mps 706 mmHg 77%
    06:00 +19°C° 0 mm 1 mps 706 mmHg 71%
    07:00 +20°C° 0 mm 1 mps 706 mmHg 65%
    08:00 +21°C° 0 mm 2 mps 706 mmHg 58%
    09:00 +23°C° 0 mm 2 mps 706 mmHg 51%
    10:00 +25°C° 0 mm 2 mps 706 mmHg 43%
    11:00 +26°C° 0 mm 2 mps 706 mmHg 40%
    12:00 +27°C° 0 mm 2 mps 705 mmHg 37%
    13:00 +27°C° 0 mm 2 mps 705 mmHg 34%
    14:00 +28°C° 0 mm 2 mps 705 mmHg 34%
    15:00 +28°C° 0 mm 2 mps 705 mmHg 33%
    16:00 +28°C° 0 mm 2 mps 705 mmHg 33%
    17:00 +27°C° 0 mm 1 mps 705 mmHg 39%
    18:00 +25°C° 0 mm 1 mps 705 mmHg 46%
    19:00 +24°C° 0 mm 1 mps 705 mmHg 52%
    20:00 +22°C° 0 mm 1 mps 705 mmHg 53%
    21:00 +21°C° 0 mm 1 mps 705 mmHg 55%
    22:00 +19°C° 0 mm 1 mps 706 mmHg 56%
    23:00 +18°C° 0 mm 1 mps 706 mmHg 59%
    Show more